星链-30786 (STARLINK-30786 )

导读 | 豆包AI

STARLINK-30786是美国SpaceX公司星链(Starlink)星座的卫星,于2023年11月03日发射入轨,属于星链第二代组网卫星。星链星座旨在为全球提供高速宽带互联网服务,该卫星采用平板设计搭载氪工质霍尔推进器,配备激光星间链路,具备自主避撞能力,寿命结束后会主动离轨再入大气层销毁,目前在近地轨道为全球通信网络提供服务。

基本信息
目录编号:
58216
目录名称:
STARLINK-30786
国际标识:
2023-170L
轨道中心:
EARTH
卫星名称:
星链-30786
卫星全名:
星链-30786 (STARLINK-30786 )
卫星状态:
已陨落 最后检测时间 2024-11-21
发射日期:
2023-11-03 UTC
国别 :
美国 (US)
星等 :
--
轨道信息
数据来源 国际轨道数据
星历时间: 2024-11-20T10:23:42+0800
轨道信息已过期551天
半长轴: 6601.93km
偏心率: 0.0015366
轨道倾角: 42.996°
近地点辐角 297.208°
升交点赤经 140.155°
平近点角 134.561°
近地点: 213.65km
远地点: 233.94km
周期: 88.975分钟
每日圈数: 16.184395
详细信息
固有亮度:
5
最大亮度:
0.3
卫星平台:
Starlink v2.0 mini
覆盖范围:
全球
运营商:
太空探索技术公司
运营商所在国:
美国
制造商(研发单位):
太空探索技术公司
制造商所在国:
美国
使用方式:
暂无
卫星简介
星链(Starlink)计划是由太空探索技术公司(SpaceX)提出的一个巨型低轨卫星互联网星座项目,计划在2019年至2024年间在太空搭建由约1.2万颗卫星组成的“星链”网络,其中1584颗将部署在地球上空550千米处的近地轨道,并从2020年开始工作。该卫星仍在工作。